Terminal Aerodrome Forecast
Issued by NWS Green Bay, WI

Home | Current Version | Previous Version | Graphics & Text | Print | Product List | Glossary On
Versions: 1 2 3 4 5 6 7 8 9 10 11 12 13 14 15 16 17 18 19 20 21 22 23 24
000
FTUS43 KGRB 231700
TAFGRB
TAF
KGRB 231720Z 2318/2418 30011G16KT P6SM SCT050
     FM240100 36004KT P6SM SKC
     FM240500 VRB03KT P6SM SCT250
     FM241400 13006KT P6SM FEW120 SCT200=

USA.gov is the U.S. government's official web portal to all federal, state and local government web resources and services.